Weather History for Seldovia, AK

Change the Weather History Date:

Thursday, November 28, 2013

  Actual Average (PAHO) Record (PAHO)
Temperature  
Mean Temperature 24 °F -  
Max Temperature 32 °F 33 °F 48 °F (1976)
Min Temperature 15 °F 23 °F -3 °F (1971)
Degree Days  
Heating Degree Days 42    
Moisture  
Dew Point 12 °F    
Average Humidity 60    
Maximum Humidity 80    
Minimum Humidity 53    
Precipitation  
Precipitation 0.00 in - - ()
Sea Level Pressure  
Sea Level Pressure 29.85 in    
Wind  
Wind Speed 8 mph (NNE)    
Max Wind Speed 14 mph    
Max Gust Speed 22 mph    
Visibility 10 miles    
Events      
Averages and records for this station are not official NWS values.
T = Trace of Precipitation, MM = Missing Value Source: NWS Daily Summary

Daily Weather History Graph

Daily Weather History Graph

Search for Another Location

Airport:

Trip Planner

Search our weather history database for the weather conditions in past years. The results will help you decide how hot, cold, wet, or windy it might be!

Date:

Astronomy

Nov. 28, 2013 Rise Set
Actual Time 9:32 AM AKST 4:17 PM AKST
Civil Twilight 8:40 AM AKST 5:09 PM AKST
Nautical Twilight 7:46 AM AKST 6:02 PM AKST
Astronomical Twilight 6:57 AM AKST 6:51 PM AKST
Moon 3:40 AM AKST (11/28) 2:31 PM AKST (11/28)
Length of Visible Light 8h 28m
Length of Day
6h 44m
Waning Crescent, 21% of the Moon is Illuminated
Nov 28
Waning Crescent
Dec 2
New
Dec 9
First Quarter
Dec 17
Full
Dec 25
Last Quarter

Hourly Weather History & Observations

Time (AKST) Temp. Windchill Dew Point Humidity Pressure Visibility Wind Dir Wind Speed Gust Speed Precip Events Conditions
12:53 AM 32.0 °F 24.2 °F 21.0 °F 64% 29.71 in 10.0 mi NNE 9.2 mph - N/A   Partly Cloudy
1:53 AM 30.9 °F 20.7 °F 16.0 °F 54% 29.71 in 10.0 mi North 13.8 mph 21.9 mph N/A   Clear
3:53 AM 30.0 °F 21.7 °F 19.9 °F 66% 29.73 in 10.0 mi NNE 9.2 mph - N/A   Clear
4:53 AM 28.0 °F 22.8 °F 18.0 °F 66% 29.74 in 10.0 mi NNE 4.6 mph - N/A   Mostly Cloudy
5:53 AM 28.9 °F 20.4 °F 17.1 °F 61% 29.74 in 10.0 mi North 9.2 mph 18.4 mph N/A   Mostly Cloudy
6:53 AM 28.0 °F 19.3 °F 14.0 °F 56% 29.75 in 10.0 mi NNE 9.2 mph 17.3 mph N/A   Overcast
7:53 AM 27.0 °F 18.7 °F 14.0 °F 58% 29.76 in 10.0 mi North 8.1 mph - N/A   Mostly Cloudy
8:53 AM 26.1 °F 18.4 °F 12.0 °F 55% 29.78 in 10.0 mi Variable 6.9 mph - N/A   Clear
9:53 AM 26.1 °F 15.0 °F 12.0 °F 55% 29.80 in 10.0 mi NNE 12.7 mph - N/A   Overcast
10:53 AM 26.1 °F 14.5 °F 12.0 °F 55% 29.81 in 10.0 mi NNE 13.8 mph - N/A   Scattered Clouds
11:53 AM 24.1 °F 14.4 °F 12.0 °F 60% 29.83 in 10.0 mi NNE 9.2 mph - N/A   Mostly Cloudy
12:53 PM 24.1 °F 14.4 °F 10.9 °F 57% 29.86 in 10.0 mi NNE 9.2 mph - N/A   Overcast
1:53 PM 23.0 °F 13.9 °F 10.0 °F 58% 29.87 in 10.0 mi NNE 8.1 mph - N/A   Clear
2:53 PM 23.0 °F 14.7 °F 8.1 °F 53% 29.89 in 10.0 mi North 6.9 mph - N/A   Clear
3:53 PM 21.0 °F 16.2 °F 9.0 °F 60% 29.91 in 10.0 mi North 3.5 mph - N/A   Partly Cloudy
4:53 PM 21.0 °F 13.4 °F 7.0 °F 55% 29.92 in 10.0 mi NNE 5.8 mph - N/A   Clear
6:53 PM 17.1 °F - 10.0 °F 74% 29.96 in 10.0 mi Calm Calm - N/A   Clear
7:53 PM 15.1 °F - 10.0 °F 80% 29.96 in 10.0 mi Calm Calm - N/A   Clear
8:53 PM 19.0 °F 11.1 °F 7.0 °F 59% 29.97 in 10.0 mi Variable 5.8 mph - N/A   Clear
9:53 PM 19.0 °F 10.0 °F 7.0 °F 59% 29.98 in 10.0 mi NNE 6.9 mph - N/A   Clear
10:53 PM 19.0 °F 10.0 °F 8.1 °F 62% 29.98 in 10.0 mi North 6.9 mph - N/A   Clear
11:53 PM 19.0 °F 9.0 °F 8.1 °F 62% 29.99 in 10.0 mi NNE 8.1 mph - N/A   Clear